Lid_Strength_Index
2 2 2 2 2 2 2 2 2 2 2 2 2 1 1 1 1 5 8 6 4 0 -1 6 8 8 9 10 7 7 11 13 12 11 11 9 9 6 4 7 7 7 7 6 4
2 2 2 2 2 2 2 2 2 2 2 2 1 1 1 1 4 6 2 0 0 -1 6 8 10 9 12 10 8 10 13 12 9 8 9 8 7 8 6 7 8 7 6 6 6
3 3 2 2 2 2 2 3 2 2 2 2 2 1 2 2 7 6 -1 -1 -1 -1 6 7 8 10 13 11 10 10 12 10 8 8 7 9 9 7 7 8 7 7 7 6 7
2 2 2 3 2 2 2 3 3 2 2 2 2 2 1 5 12 6 -1 -1 -2 3 5 6 9 11 13 14 11 13 10 9 8 8 9 9 8 9 7 7 5 6 7 6 7
1 2 3 3 3 2 2 2 3 2 2 2 2 2 5 8 6 2 -2 -1 1 4 6 7 10 12 13 15 13 14 12 11 11 11 11 10 11 11 10 8 6 6 7 7 7
1 2 3 3 3 3 3 3 3 3 3 2 2 1 6 10 5 2 1 1 3 5 6 7 10 10 12 13 14 13 13 12 12 12 11 11 11 11 10 8 8 7 7 8 8
1 2 2 3 3 3 3 2 2 2 2 1 1 2 6 8 4 4 4 5 5 5 7 7 8 10 11 13 12 12 15 14 13 12 12 11 13 13 10 9 10 9 8 8 9
2 2 2 3 3 3 2 2 2 2 2 1 0 4 9 3 3 4 5 6 5 5 6 7 8 10 12 12 12 14 16 18 15 13 12 12 15 12 11 11 11 10 10 9 9
2 2 3 3 3 3 3 3 2 2 1 1 5 7 8 2 5 5 6 7 7 7 7 5 8 11 11 14 16 16 19 17 14 12 12 13 15 12 10 11 11 11 10 10 9
3 2 3 3 3 3 3 3 3 2 2 2 3 8 6 6 5 6 6 6 7 7 8 10 12 14 15 16 19 17 17 16 16 13 13 13 14 11 10 10 11 11 11 11 10
3 3 3 2 2 3 5 8 10 10 6 9 7 6 5 3 4 7 6 7 7 9 13 11 13 16 14 13 14 14 15 16 14 12 12 13 13 12 10 11 11 10 10 11 11
3 3 3 3 2 2 7 8 8 8 11 7 7 5 4 3 7 7 6 9 10 13 12 13 15 12 11 12 13 14 15 16 13 11 13 13 13 12 11 11 11 10 10 10 10
3 3 3 2 3 6 8 7 6 8 12 9 7 7 7 5 8 8 7 9 11 13 14 15 13 11 11 13 13 14 15 14 14 12 12 14 16 14 12 11 10 10 10 10 10
3 3 3 3 5 7 7 5 6 8 14 11 10 8 9 9 10 6 6 8 11 12 12 13 12 12 14 13 12 15 11 12 13 15 19 13 20 15 13 12 11 11 11 10 8
4 3 3 3 8 7 5 5 6 7 19 10 10 8 10 10 9 8 6 9 12 12 12 13 13 13 14 13 11 13 10 12 13 15 17 16 19 17 14 14 13 12 10 8 8
5 4 3 5 7 6 5 6 6 13 18 11 9 9 10 10 9 8 8 8 9 12 12 12 11 12 12 9 10 10 12 14 15 17 20 17 18 19 16 14 13 11 9 8 8
5 4 5 6 8 6 6 7 14 17 10 12 11 10 11 10 9 9 10 12 14 16 16 13 13 10 9 12 11 13 16 20 20 20 20 15 17 16 13 11 11 10 9 8 8
5 5 5 6 7 6 7 12 17 12 13 9 10 11 12 10 10 10 11 13 11 13 15 16 16 11 8 11 13 14 15 19 22 21 20 15 18 16 12 10 8 8 8 8 9
6 8 7 6 6 8 11 17 16 13 11 11 11 13 13 11 11 11 12 12 11 12 14 15 14 10 9 9 11 14 16 14 17 17 20 18 15 12 10 10 8 8 8 8 8
10 9 8 7 8 9 13 14 13 10 10 10 14 12 15 13 13 13 13 9 10 9 11 13 15 11 9 9 10 12 11 16 18 21 22 18 17 16 12 10 9 8 8 7 6
9 11 8 8 8 11 16 15 12 8 8 10 12 13 13 13 13 13 12 10 8 9 10 12 13 13 11 13 14 14 15 14 16 18 22 21 18 12 11 10 9 8 7 7 6
11 13 8 8 13 16 16 13 10 10 8 9 10 11 12 12 13 13 12 10 7 8 11 11 13 16 13 11 9 12 13 13 18 18 16 17 16 10 10 9 8 8 7 6 6
13 12 8 9 17 17 14 12 11 11 11 11 11 10 11 13 14 12 11 8 8 9 11 11 14 17 15 14 12 13 12 12 14 15 17 19 16 9 9 9 8 7 7 6 6
13 15 13 13 14 16 15 14 13 9 10 11 11 11 12 13 12 13 12 9 9 8 6 8 14 14 17 15 14 14 12 12 13 17 16 16 14 11 10 9 9 8 7 7 6
14 16 14 18 17 16 16 14 13 13 12 12 13 12 13 15 14 14 12 11 9 7 10 10 14 13 12 11 11 12 12 12 14 13 16 14 14 11 9 9 9 7 7 7 6
15 16 14 16 15 16 15 15 14 13 13 13 14 12 13 15 13 14 14 13 13 10 11 12 14 13 15 12 12 14 12 12 12 12 13 12 13 9 8 8 9 8 7 7 6
13 13 14 15 16 18 17 15 14 13 12 11 12 13 14 12 11 11 11 11 11 12 13 12 13 14 16 13 13 16 13 12 11 11 12 14 11 9 9 8 8 8 7 7 6